Weather History for San Antonio Stinson, TX

Change the Weather History Date:

Friday, December 20, 2013

  Actual Average Record
Temperature  
Mean Temperature 70 °F -  
Max Temperature 78 °F 60 °F 79 °F (2007)
Min Temperature 62 °F 37 °F 30 °F (2000)
Cooling Degree Days 5    
Growing Degree Days 20 (Base 50)    
Moisture  
Dew Point 64 °F    
Average Humidity 79    
Maximum Humidity 94    
Minimum Humidity 60    
Precipitation  
Precipitation 0.00 in - - ()
Sea Level Pressure  
Sea Level Pressure 29.72 in    
Wind  
Wind Speed 6 mph (SE)    
Max Wind Speed 20 mph    
Max Gust Speed 25 mph    
Visibility 8 miles    
Events      
Averages and records for this station are not official NWS values.
T = Trace of Precipitation, MM = Missing Value Source: NWS Daily Summary

Daily Weather History Graph

Daily Weather History Graph

Search for Another Location

Airport:

Trip Planner

Search our weather history database for the weather conditions in past years. The results will help you decide how hot, cold, wet, or windy it might be!

Date:

Astronomy

Dec. 20, 2013 Rise Set
Actual Time 7:23 AM CST 5:39 PM CST
Civil Twilight 6:57 AM CST 6:05 PM CST
Nautical Twilight 6:27 AM CST 6:35 PM CST
Astronomical Twilight 5:58 AM CST 7:04 PM CST
Moon 8:48 PM CST (12/20) 9:29 AM CST (12/20)
Length of Visible Light 11h 08m
Length of Day
10h 16m
Waning Gibbous, 90% of the Moon is Illuminated
Dec 20
Waning Gibbous
Dec 25
Last Quarter
Jan 1
New
Jan 7
First Quarter
Jan 15
Full

Hourly Weather History & Observations

Time (CST) Temp. Dew Point Humidity Pressure Visibility Wind Dir Wind Speed Gust Speed Precip Events Conditions
12:20 AM 62.6 °F 60.8 °F 94% 29.82 in 8.0 mi Calm Calm - N/A   Mostly Cloudy
12:53 AM 64.0 °F 61.0 °F 90% 29.80 in 7.0 mi East 3.5 mph - N/A   Overcast
1:53 AM 66.0 °F 62.1 °F 87% 29.79 in 8.0 mi ESE 3.5 mph - N/A   Overcast
2:53 AM 66.0 °F 63.0 °F 90% 29.78 in 8.0 mi SE 3.5 mph - N/A   Overcast
3:04 AM 66.2 °F 62.6 °F 88% 29.81 in 8.0 mi SE 4.6 mph - N/A   Overcast
3:53 AM 66.9 °F 63.0 °F 87% 29.78 in 8.0 mi SSE 4.6 mph - N/A   Overcast
4:53 AM 68.0 °F 63.0 °F 84% 29.78 in 9.0 mi SE 4.6 mph - N/A   Overcast
5:53 AM 68.0 °F 63.0 °F 84% 29.79 in 10.0 mi SE 4.6 mph - N/A   Overcast
6:48 AM 66.2 °F 62.6 °F 88% 29.82 in 9.0 mi SE 3.5 mph - N/A   Overcast
6:53 AM 68.0 °F 63.0 °F 84% 29.80 in 9.0 mi SE 4.6 mph - N/A   Overcast
7:53 AM 68.0 °F 63.0 °F 84% 29.80 in 7.0 mi SE 4.6 mph - N/A   Overcast
8:53 AM 69.1 °F 64.0 °F 84% 29.81 in 7.0 mi SE 6.9 mph - N/A   Overcast
9:53 AM 72.0 °F 64.0 °F 76% 29.82 in 9.0 mi SSE 11.5 mph - N/A   Overcast
10:53 AM 73.0 °F 64.0 °F 73% 29.81 in 10.0 mi South 12.7 mph - N/A   Overcast
11:53 AM 73.9 °F 64.0 °F 71% 29.79 in 10.0 mi South 13.8 mph 19.6 mph N/A   Overcast
12:37 PM 75.2 °F 64.4 °F 69% 29.78 in 10.0 mi SSE 12.7 mph 18.4 mph N/A   Overcast
12:53 PM 75.9 °F 64.0 °F 67% 29.74 in 10.0 mi SSE 10.4 mph - N/A   Overcast
1:29 PM 77.0 °F 64.4 °F 65% 29.74 in 10.0 mi South 10.4 mph - N/A   Overcast
1:53 PM 77.0 °F 64.0 °F 64% 29.71 in 10.0 mi SSE 9.2 mph - N/A   Mostly Cloudy
2:53 PM 78.1 °F 63.0 °F 60% 29.69 in 10.0 mi South 9.2 mph - N/A   Overcast
3:53 PM 77.0 °F 64.0 °F 64% 29.67 in 10.0 mi SE 8.1 mph - N/A   Mostly Cloudy
4:53 PM 75.9 °F 64.9 °F 69% 29.66 in 9.0 mi East 5.8 mph - N/A   Mostly Cloudy
5:53 PM 73.9 °F 64.0 °F 71% 29.65 in 10.0 mi East 3.5 mph - N/A   Clear
6:53 PM 73.0 °F 64.0 °F 73% 29.65 in 10.0 mi East 5.8 mph - N/A   Scattered Clouds
7:53 PM 72.0 °F 66.0 °F 81% 29.65 in 7.0 mi ESE 9.2 mph - N/A   Clear
8:53 PM 72.0 °F 66.9 °F 84% 29.64 in 6.0 mi SE 10.4 mph - N/A   Haze
9:08 PM 71.6 °F 66.2 °F 83% 29.67 in 6.0 mi SE 9.2 mph - N/A   Haze
9:53 PM 71.1 °F 66.9 °F 87% 29.62 in 6.0 mi ESE 13.8 mph - N/A   Mostly Cloudy
10:04 PM 71.6 °F 66.2 °F 83% 29.66 in 6.0 mi SE 11.5 mph - N/A   Haze
10:20 PM 71.6 °F 66.2 °F 83% 29.65 in 6.0 mi ESE 10.4 mph - N/A   Haze
10:36 PM 71.6 °F 66.2 °F 83% 29.65 in 6.0 mi ESE 11.5 mph - N/A   Haze
10:53 PM 71.1 °F 66.0 °F 84% 29.61 in 7.0 mi ESE 15.0 mph - N/A   Overcast
11:31 PM 71.6 °F 66.2 °F 83% 29.61 in 8.0 mi SE 19.6 mph 25.3 mph N/A   Overcast
11:53 PM 73.0 °F 66.9 °F 81% 29.59 in 9.0 mi SSE 10.4 mph - N/A   Overcast